Theta_e
338 338 342 336 332 325 319 320 302 309 307 295 294 298 294 302 301 300 299 302 300 304 306 306 307 310 307 304 305 312 311 307 310 302 303 324 338 340 342 342 343 344 344 346 346 347 347 347 347 348 348 349 350 349 349 349 349 349 348 347 346 346 346 347 347 347 345 344 344 344 343 342 341 341 341 341 340 340 339 339 339 339 339 339 342 346 346 346 345 344 343 344 342 341 340 339 338
332 333 327 327 325 324 315 317 306 300 302 293 294 296 297 300 301 298 300 303 303 304 305 304 308 309 310 307 306 312 313 316 319 321 328 335 340 339 342 342 342 343 344 345 346 347 347 346 347 348 349 349 349 349 348 349 349 349 348 347 346 346 346 347 347 346 346 344 342 342 342 342 341 341 340 340 340 339 339 339 339 339 339 343 345 345 344 343 343 343 342 342 342 340 339 338 338
326 325 325 324 322 319 315 313 301 297 294 290 293 295 300 298 300 303 304 304 305 306 307 307 308 309 309 308 305 307 306 322 324 326 328 337 333 335 339 341 343 344 344 344 345 346 347 345 345 349 350 349 349 349 349 349 349 348 348 348 346 346 346 347 347 347 345 343 342 341 342 342 341 341 340 339 339 339 338 338 339 340 340 340 340 340 340 340 341 341 341 341 341 339 338 336 338
328 327 323 324 317 318 309 307 302 298 294 292 291 298 299 300 301 303 304 306 305 305 306 306 305 309 308 305 304 312 315 315 325 327 326 330 330 337 339 341 343 343 344 345 345 346 347 344 346 349 349 349 349 349 349 348 348 348 348 347 346 346 346 346 346 346 345 343 342 341 341 341 341 341 340 339 338 339 339 339 339 339 342 342 343 344 344 344 344 342 341 340 339 338 338 338 338
324 328 326 319 319 314 310 306 300 297 292 295 291 298 300 303 303 303 303 304 305 305 308 308 304 309 311 308 310 307 310 320 321 328 329 331 336 337 339 345 342 342 342 344 346 347 347 344 348 349 349 349 349 349 348 348 348 348 348 347 346 346 346 346 346 346 345 343 342 341 340 340 340 340 339 339 339 338 339 341 340 341 342 343 344 345 344 345 344 343 342 339 338 337 337 337 338
327 325 329 322 313 317 308 299 299 294 297 300 295 296 300 303 303 303 303 305 306 305 306 307 304 303 306 311 315 310 317 312 327 331 332 331 336 338 342 344 342 342 342 345 347 347 347 343 347 349 349 349 349 348 348 348 348 348 347 347 346 346 346 346 346 346 345 342 341 340 339 340 341 340 339 338 339 338 339 340 346 345 344 343 344 344 345 344 343 342 339 338 338 337 336 337 337
324 321 321 322 318 316 305 300 295 294 295 300 297 298 301 303 304 303 303 302 305 305 306 306 307 306 307 308 315 320 325 323 325 332 334 335 337 338 342 341 341 341 342 345 346 347 346 344 349 350 349 349 349 348 348 348 348 347 347 347 346 346 346 345 346 346 344 342 340 340 340 341 341 340 339 338 338 338 338 341 344 343 343 342 342 344 344 344 343 340 338 337 337 336 336 336 336
325 317 318 309 307 305 302 298 296 297 296 301 302 301 303 304 304 303 302 301 300 300 303 306 306 306 303 309 308 318 328 331 333 336 336 335 337 338 340 341 340 341 343 346 347 345 346 343 348 349 349 349 348 348 348 348 347 347 346 347 346 346 346 346 345 345 344 342 341 340 340 341 340 339 338 338 338 337 337 337 337 340 341 340 340 340 340 341 340 339 337 336 336 335 336 336 336
322 317 322 312 303 305 299 295 295 298 298 300 301 306 309 304 304 303 301 303 302 305 303 304 305 302 301 308 309 315 323 329 332 334 335 335 336 337 338 339 339 340 344 346 346 345 344 340 345 348 348 349 348 348 348 347 346 346 346 346 346 346 346 345 345 344 343 341 340 339 338 339 339 338 338 338 338 337 337 336 337 337 338 338 338 338 339 339 339 339 337 336 336 335 335 335 335
316 314 306 307 308 301 298 295 295 298 298 300 300 302 303 303 303 303 302 301 302 303 305 306 304 302 303 305 308 315 318 328 331 333 335 336 337 337 337 340 342 342 343 345 346 345 343 343 341 344 346 348 348 348 347 347 347 346 346 346 345 345 345 345 345 344 342 340 338 338 338 338 339 339 339 338 337 337 336 336 338 338 338 337 337 336 336 336 335 335 335 335 335 334 334 334 334
309 315 316 306 301 297 299 295 295 298 298 300 301 304 304 304 304 303 302 302 303 303 304 305 302 302 303 308 309 318 323 327 329 329 334 336 336 336 335 341 342 342 343 344 345 344 342 341 340 339 343 345 347 348 348 347 347 346 347 346 345 345 345 345 344 344 342 340 338 338 339 339 339 338 338 337 337 336 335 335 336 336 336 334 333 333 333 332 332 333 333 335 334 334 333 333 333
308 306 312 301 298 299 297 295 297 297 299 299 299 303 303 304 304 302 302 300 301 302 302 304 303 305 302 306 307 315 320 323 328 331 334 336 335 336 338 338 343 343 346 346 345 344 343 341 340 339 337 340 342 345 346 346 347 347 347 346 346 345 345 344 344 343 341 338 337 336 337 338 338 338 337 336 336 336 335 335 334 334 334 332 331 331 331 331 332 333 334 333 333 332 332 332 331
312 313 303 299 298 297 296 296 296 297 297 297 299 303 303 303 302 301 301 301 300 300 302 305 307 304 301 304 309 315 315 321 331 332 333 332 335 336 339 337 341 342 345 345 344 344 344 342 341 341 332 331 335 339 341 343 345 347 347 346 345 345 344 344 343 343 341 338 337 336 336 336 336 336 336 336 335 335 335 334 333 333 333 332 331 331 331 332 333 333 332 332 331 331 331 330 330
312 315 309 301 304 298 297 298 296 295 295 299 301 303 304 302 302 303 301 301 300 300 305 307 306 305 302 305 307 308 314 328 331 331 331 334 335 336 338 340 340 342 344 344 343 343 343 343 342 341 337 340 339 334 332 338 342 345 345 345 343 343 343 341 343 342 340 337 336 335 334 334 335 335 335 335 335 334 334 332 332 331 330 330 330 331 331 331 331 330 331 330 330 329 329 329 328
315 313 308 305 299 297 299 296 296 296 295 300 301 302 302 305 305 302 302 300 300 306 307 307 309 304 297 301 302 307 320 329 330 331 332 333 334 334 336 338 338 338 341 341 342 342 342 342 342 340 341 343 343 342 342 339 336 340 342 341 341 342 342 340 340 339 336 334 333 331 330 329 328 330 331 332 333 332 331 329 330 328 329 331 330 331 331 330 329 329 329 328 328 327 327 326 326
316 311 306 302 297 295 299 298 298 297 295 300 301 303 301 302 304 302 302 303 304 310 306 301 307 302 307 317 313 320 327 328 329 331 330 330 331 332 333 335 336 337 338 340 341 342 342 341 341 339 340 342 343 342 342 341 333 334 339 340 339 340 339 338 337 335 330 328 327 325 324 324 323 323 323 325 327 329 328 326 328 328 329 329 330 330 329 329 328 328 327 326 325 324 323 323 324
316 313 302 297 295 295 298 298 297 294 297 299 302 302 299 299 304 303 303 306 303 303 304 306 304 308 306 313 325 326 326 327 327 329 328 327 326 326 328 329 333 336 338 338 340 339 340 341 341 340 341 341 342 342 341 342 337 331 333 332 333 335 335 335 332 326 322 321 321 320 321 323 322 322 322 322 320 322 320 322 326 327 327 327 328 328 328 328 327 326 325 323 322 321 319 319 319
314 304 299 296 296 296 300 299 298 301 299 298 300 301 301 298 301 303 304 303 303 302 303 305 307 307 310 321 326 325 325 324 326 326 325 324 323 324 324 327 331 331 330 332 336 339 339 339 340 341 340 341 342 342 341 342 338 336 339 336 336 334 330 327 328 329 326 324 321 322 323 321 322 321 321 323 320 320 320 320 322 325 325 325 325 326 326 325 325 324 323 321 321 321 318 312 313
308 300 298 295 299 299 301 301 302 300 299 300 301 301 301 301 301 302 299 299 299 300 301 303 303 306 307 315 322 322 322 322 324 325 324 324 323 324 325 326 326 329 330 332 333 337 338 338 338 340 341 341 341 340 340 340 341 340 341 339 338 333 332 332 334 330 328 325 324 326 323 324 323 321 321 321 320 318 319 320 321 323 323 323 323 323 323 322 322 321 319 318 318 318 310 308 310
306 303 297 299 302 299 302 303 301 302 303 301 300 301 301 301 302 303 299 298 299 298 298 299 301 303 305 312 318 320 321 322 323 324 323 323 324 325 325 326 326 325 328 330 330 334 336 336 337 337 339 340 340 340 340 339 340 340 339 339 339 339 336 337 337 334 329 325 327 329 326 327 324 322 320 320 319 319 317 317 318 318 319 319 318 318 320 319 318 317 316 317 313 310 308 308 308
304 301 299 300 299 299 300 302 302 302 302 302 301 301 301 302 303 301 300 297 298 300 301 301 301 303 306 308 316 318 321 321 321 322 323 324 324 326 326 327 326 326 326 329 330 332 334 335 335 337 338 337 338 339 339 339 339 339 340 340 340 339 338 338 338 337 332 327 329 333 332 327 323 320 319 319 318 318 316 314 313 312 311 310 312 308 308 310 311 309 308 308 306 306 306 306 307
306 298 300 300 300 298 301 301 301 300 300 303 300 298 300 302 303 301 300 296 295 300 304 303 305 307 307 306 315 317 320 319 320 321 322 323 323 324 326 326 328 327 327 327 329 330 332 335 334 334 336 336 336 336 338 339 340 339 338 337 338 338 337 337 337 336 335 331 332 336 331 326 322 320 319 319 318 317 314 312 311 310 309 308 309 307 309 310 308 307 305 304 304 304 305 306 306
301 298 299 300 300 299 302 301 299 299 303 301 300 302 301 300 301 301 300 299 301 303 305 305 307 309 309 309 314 313 317 318 318 319 322 322 323 323 325 326 327 326 326 326 327 327 329 332 333 333 331 333 335 335 336 336 338 339 339 338 337 336 336 336 336 337 337 335 334 335 330 326 322 320 321 320 318 316 314 312 310 309 308 308 309 311 310 309 306 304 303 302 302 303 304 305 306
300 296 299 299 301 300 301 299 300 299 300 300 301 302 301 299 298 302 300 301 303 304 306 305 304 308 310 309 311 312 314 316 318 320 321 322 323 324 324 325 326 326 325 326 325 324 324 326 329 331 331 332 333 334 334 335 336 337 338 337 337 334 335 336 337 336 337 336 335 334 330 326 323 322 322 321 319 317 315 314 311 310 309 310 312 311 308 305 304 303 301 301 300 300 301 302 303
298 298 300 300 301 300 299 298 299 300 301 300 301 300 300 301 300 299 299 302 303 304 304 304 305 304 307 310 310 311 313 314 316 319 321 321 323 325 325 325 326 325 324 325 324 325 325 326 327 328 330 330 331 332 332 332 333 335 335 337 337 334 337 336 336 336 336 337 336 333 332 326 325 326 324 323 322 320 319 314 311 310 311 312 311 308 306 304 302 301 300 299 299 299 299 300 300
301 299 300 300 300 300 299 300 300 301 301 301 300 299 300 301 302 299 301 302 303 304 303 304 304 303 302 307 310 310 310 313 315 316 318 319 321 324 324 324 325 325 325 325 325 325 325 326 327 328 330 330 330 331 330 330 331 333 333 334 335 335 336 336 337 336 336 335 335 335 333 330 327 328 325 324 323 321 317 313 311 311 312 311 309 306 305 303 301 300 299 299 298 298 298 299 298
302 299 300 300 299 299 301 300 300 301 301 301 299 299 299 300 299 294 301 302 303 304 303 304 303 302 303 303 305 309 309 310 313 316 316 317 318 321 323 323 324 325 325 325 326 326 324 326 326 328 329 328 329 329 328 330 330 331 332 333 334 335 336 335 335 335 333 335 336 335 334 331 329 329 326 325 323 320 317 314 313 313 311 309 308 305 304 302 299 298 298 298 298 298 298 297 297
302 301 299 299 300 301 300 301 299 300 299 300 301 298 300 299 300 296 302 303 304 303 303 302 303 302 301 303 303 304 307 309 312 314 315 316 317 319 322 323 323 324 324 324 325 324 325 326 326 327 328 327 327 327 327 327 327 328 331 332 332 335 334 333 333 332 331 334 334 334 334 333 330 330 328 326 321 319 317 316 315 312 308 307 306 303 301 301 300 299 298 298 298 297 297 296 296
300 300 296 298 299 298 299 299 299 300 299 300 302 298 296 297 295 300 301 303 303 302 302 302 302 303 303 302 302 303 304 305 310 312 315 317 318 320 321 324 324 323 323 325 324 324 324 325 325 326 327 324 323 324 324 324 324 326 327 330 330 334 333 331 330 331 332 334 335 334 333 333 331 332 330 327 320 319 317 317 314 309 306 305 303 301 300 299 298 297 297 297 297 297 297 297 297
302 301 298 296 295 294 299 301 299 298 300 301 300 288 291 297 300 301 302 302 302 302 301 300 301 303 303 303 302 303 305 306 307 312 313 316 318 318 319 323 324 323 321 322 325 324 325 324 325 326 325 323 322 323 322 322 322 322 323 326 329 332 332 330 328 329 330 331 335 335 334 331 330 331 330 326 322 320 318 315 311 308 306 304 301 300 299 299 296 296 296 296 297 296 295 296 295
295 298 299 293 291 291 299 300 298 297 300 301 301 290 291 297 300 302 303 303 302 300 299 300 302 303 303 303 303 303 306 307 307 311 314 315 316 317 317 319 322 323 320 322 324 324 323 322 324 324 322 321 320 321 320 319 320 322 322 323 325 330 329 328 327 328 330 329 329 333 335 332 330 331 330 324 322 320 317 313 309 307 304 302 301 300 299 297 295 295 295 294 295 295 295 294 293
298 291 288 293 292 295 298 301 298 295 297 300 298 291 292 297 299 302 302 302 302 299 299 300 302 302 303 304 304 304 305 307 308 309 314 315 315 314 315 316 320 322 321 322 322 323 320 319 319 317 317 318 317 317 317 317 318 319 321 321 322 326 326 326 323 324 327 326 327 328 334 332 332 331 327 323 321 319 315 310 308 305 303 302 301 299 297 295 294 295 295 295 294 294 294 293 293
296 291 293 291 293 293 295 297 301 300 298 300 297 290 294 296 298 300 300 301 300 299 299 300 301 302 301 303 304 304 305 305 307 308 311 314 314 314 315 316 318 320 321 320 320 319 318 317 317 316 316 316 316 316 316 316 316 317 319 319 321 324 324 323 321 323 324 324 325 325 329 330 330 328 324 322 319 316 313 309 307 305 304 301 299 298 296 296 295 296 296 297 295 294 294 292 292
290 294 289 296 291 292 290 296 298 300 298 294 296 292 293 296 298 300 300 301 300 299 300 301 301 300 301 301 302 304 304 304 306 307 308 312 313 315 316 315 317 319 319 318 319 319 318 316 315 315 315 316 315 315 315 315 314 314 314 314 315 319 320 320 320 321 322 321 323 323 325 328 328 326 323 320 318 315 312 308 306 305 303 301 299 297 296 296 297 296 295 295 295 294 292 291 291
289 289 289 290 294 293 291 291 295 298 297 294 294 293 294 297 298 299 299 301 301 299 300 300 300 300 300 301 301 302 303 304 305 308 309 310 312 314 315 315 316 317 318 317 317 317 316 315 314 313 314 314 315 315 314 313 312 311 311 309 311 315 313 317 318 318 319 320 321 323 324 325 325 326 323 320 317 314 311 308 306 305 303 300 298 296 296 296 296 295 295 294 294 292 291 291 291
293 295 293 292 290 290 290 295 297 297 293 292 292 291 294 296 298 300 300 301 300 300 300 300 300 300 300 300 301 302 303 304 305 308 310 310 312 313 313 314 315 315 316 316 315 316 315 314 313 313 314 314 314 313 312 310 311 308 307 308 307 310 311 310 313 317 318 318 318 320 322 323 324 324 323 320 317 314 310 308 306 305 302 300 298 296 297 296 295 295 294 294 293 292 292 291 291
294 295 294 291 291 293 295 295 296 297 293 291 293 294 294 295 297 298 298 298 298 298 298 299 299 300 301 300 301 301 302 304 307 308 310 310 311 312 311 312 313 314 314 315 315 315 315 313 312 312 313 314 313 311 311 310 309 308 309 310 309 309 310 310 310 312 315 315 316 317 320 321 322 323 321 320 316 312 310 308 306 304 302 300 298 297 297 296 296 295 294 293 292 291 290 290 290
294 293 293 290 295 290 296 295 296 296 293 290 292 292 293 294 296 297 298 298 298 299 299 299 299 300 301 301 302 302 303 306 309 308 309 309 309 310 310 310 310 311 312 313 313 314 314 313 312 312 313 313 312 312 311 310 310 309 310 311 312 312 309 309 308 309 311 311 313 314 317 320 321 321 320 318 315 312 309 307 306 303 302 300 299 298 297 296 295 294 294 292 292 291 289 290 290
295 292 292 292 291 294 295 295 296 297 294 290 291 290 293 295 296 297 297 298 300 300 300 299 299 299 300 302 302 303 303 304 308 307 308 308 309 309 308 308 310 311 311 311 312 312 311 311 312 312 312 311 310 310 310 309 309 310 311 312 313 310 307 306 307 306 306 307 310 312 313 315 319 318 318 316 314 312 310 308 306 304 303 301 298 297 296 295 295 294 293 292 290 291 290 291 290
293 292 290 289 295 293 289 293 295 295 293 290 290 290 293 296 297 297 299 299 300 301 301 301 301 300 300 301 301 302 303 304 308 306 307 307 308 308 307 307 308 309 309 309 310 311 311 310 311 311 310 310 309 309 308 308 309 310 309 310 312 308 304 302 301 301 303 306 306 308 309 311 314 315 315 314 314 312 310 308 307 305 303 301 299 296 295 294 294 294 293 292 291 289 289 290 291
294 296 293 292 294 294 291 291 293 295 295 295 292 291 291 294 294 295 298 300 299 300 300 300 301 303 303 303 304 304 303 303 305 307 306 306 306 306 306 306 307 308 308 309 309 311 311 310 310 310 309 308 308 307 308 308 305 303 303 303 303 303 303 302 302 301 302 304 304 305 307 307 311 313 314 313 312 311 310 308 307 305 303 301 299 297 295 294 294 294 293 292 291 290 288 289 290
291 295 295 294 294 292 294 295 294 289 288 293 294 282 284 293 294 296 298 297 297 299 299 299 300 301 301 301 302 303 306 304 303 304 306 306 306 305 305 305 306 307 308 309 309 310 310 309 309 309 308 307 308 308 308 305 305 303 302 303 302 304 303 301 302 303 301 302 303 304 303 304 308 311 312 313 312 310 310 308 307 305 302 300 299 297 296 294 293 293 293 293 292 291 289 288 287
289 290 296 297 294 295 294 294 291 283 281 292 294 284 281 287 290 292 293 295 296 297 298 299 300 301 300 302 303 303 304 304 306 306 305 305 305 305 305 305 306 306 307 309 309 309 309 309 309 309 307 307 308 308 307 304 304 304 305 305 304 305 305 304 305 306 304 303 303 302 302 302 304 308 310 311 311 310 310 308 307 305 302 300 299 297 295 294 294 294 295 294 293 293 291 289 289
287 295 297 297 296 293 294 293 292 288 293 294 293 291 281 283 289 293 295 294 294 295 297 298 300 300 301 301 304 303 304 304 305 303 303 304 305 305 305 305 305 306 307 309 309 309 308 308 308 308 306 306 307 308 305 305 304 304 305 305 305 305 306 304 305 304 303 301 301 300 300 300 301 304 307 309 310 309 309 308 307 304 302 300 299 297 296 295 295 296 295 295 295 294 292 290 290
292 295 299 296 297 295 294 292 290 289 286 282 288 292 283 282 288 294 294 291 292 293 294 295 297 297 298 302 304 303 304 304 305 303 302 302 304 304 304 305 305 307 307 308 308 308 308 308 308 307 306 306 306 306 303 304 305 305 306 306 306 307 308 306 304 303 300 299 299 297 298 299 300 300 303 306 308 309 306 307 306 304 302 300 298 298 297 296 295 295 295 295 295 294 293 292 291
294 297 299 298 297 296 294 289 288 286 283 281 286 291 281 284 289 288 291 291 291 292 294 297 297 298 300 302 301 302 302 301 301 303 302 302 303 303 304 305 305 306 307 308 308 308 307 307 307 306 305 305 304 304 303 304 305 305 306 307 307 306 307 305 303 300 299 299 298 296 297 297 298 299 300 303 305 307 307 307 305 304 302 301 298 298 297 296 296 296 296 295 295 294 293 293 292
298 298 295 294 292 290 289 288 285 283 279 281 290 291 288 280 288 288 289 291 294 293 295 296 299 302 304 303 302 301 301 302 300 300 301 301 301 303 303 304 304 305 306 307 307 307 306 306 306 305 305 305 303 303 302 303 305 306 306 307 307 307 303 302 300 298 297 297 297 295 295 296 296 297 298 300 303 305 307 306 305 304 303 300 299 299 297 297 297 297 297 296 296 294 293 294 293
298 293 290 290 287 287 285 284 285 279 278 286 290 291 289 278 281 292 294 295 295 295 293 293 296 300 303 301 301 301 300 301 300 299 299 299 300 301 301 302 303 305 306 306 305 306 305 305 305 304 304 304 303 302 302 302 304 305 306 307 307 306 302 301 300 298 297 297 297 295 294 294 294 296 297 297 299 302 305 305 305 304 302 301 300 300 298 298 298 298 297 297 297 296 295 293 291
296 291 288 282 281 282 279 282 278 278 277 282 284 290 286 285 289 291 294 295 294 295 295 295 297 299 304 301 299 299 300 300 300 300 299 299 299 300 300 301 303 304 305 305 305 304 304 304 304 303 303 303 302 301 301 302 303 305 306 307 308 307 303 302 301 299 298 299 297 295 294 294 294 294 295 296 297 301 303 304 304 303 302 301 301 300 299 299 298 298 297 298 297 295 294 292 291
292 288 283 280 276 276 273 277 281 281 283 283 285 286 283 288 290 293 294 295 296 297 297 300 300 299 299 303 301 301 300 300 300 301 300 299 299 300 300 301 302 303 304 305 304 304 303 303 303 303 302 303 302 301 301 302 303 304 305 306 307 307 304 302 301 300 299 299 298 296 295 295 294 295 295 297 298 299 302 304 304 304 303 302 301 301 300 299 299 298 298 296 295 293 292 290 290
291 292 290 283 280 276 273 277 275 277 279 283 285 281 279 279 285 294 295 295 295 297 297 299 300 300 299 302 301 301 300 299 300 301 301 301 301 301 301 301 302 303 304 304 304 303 302 302 302 302 301 302 301 300 300 301 303 304 304 305 304 303 303 303 302 301 299 298 298 297 295 296 295 296 296 297 298 299 300 302 303 303 303 302 302 301 300 299 299 298 296 295 293 292 291 290 288
290 292 294 286 283 287 278 281 282 278 280 278 280 280 283 287 293 294 296 295 296 297 298 297 297 299 300 301 302 302 301 301 302 301 301 302 302 301 301 301 302 303 304 304 303 303 302 302 302 302 302 302 302 299 299 300 302 303 304 304 304 301 300 301 301 299 299 299 298 297 296 296 296 296 296 296 297 298 299 300 300 301 301 301 300 299 298 298 297 296 294 293 291 291 289 287 286
288 291 284 288 293 290 284 281 281 280 278 278 282 283 287 289 293 295 296 295 295 295 296 296 296 298 298 299 300 299 301 301 301 301 302 302 301 301 302 301 301 303 303 303 303 303 302 302 301 301 301 301 302 299 299 299 301 301 302 303 303 300 299 299 300 299 298 298 298 298 297 297 297 297 296 296 296 298 298 299 299 298 298 298 297 296 296 296 295 293 292 291 289 287 287 286 286
290 283 288 294 295 292 285 278 280 278 276 278 280 280 283 281 282 291 290 291 293 293 294 297 297 296 297 299 299 300 301 301 301 301 302 302 302 301 301 301 302 303 303 303 303 303 303 302 302 301 301 301 301 299 298 299 300 300 301 301 302 301 299 299 300 299 299 298 297 297 297 295 296 296 296 296 296 297 297 296 297 295 295 295 295 294 294 293 292 291 291 290 288 286 286 285 285
292 288 298 288 281 280 283 280 275 273 273 276 279 281 282 285 286 288 288 289 291 293 295 295 296 296 297 298 299 300 300 302 302 301 301 301 300 300 301 301 302 303 303 303 303 303 303 302 302 302 301 301 301 300 298 299 300 300 300 300 301 301 300 299 299 300 298 297 297 297 296 295 294 293 294 294 294 294 293 293 293 292 292 293 293 292 292 291 291 290 289 288 287 286 285 284 284
296 296 292 295 288 282 281 281 280 280 275 273 277 278 280 288 288 289 291 292 293 294 294 294 296 297 298 298 300 300 301 302 302 301 301 301 300 300 300 301 301 302 302 303 303 302 302 302 301 301 301 301 301 300 297 298 299 299 298 298 299 300 300 300 299 298 297 296 296 296 295 293 292 292 292 292 292 292 292 291 291 291 291 291 291 290 290 290 289 289 288 287 285 284 284 283 283
284 285 284 288 285 288 284 285 281 279 275 275 275 277 282 288 292 292 293 294 294 295 295 295 296 297 298 299 300 301 302 302 303 302 301 300 300 299 299 300 300 300 301 302 302 302 302 302 301 301 300 300 300 300 298 297 298 298 297 296 297 297 298 299 298 297 296 295 295 294 294 293 291 290 290 290 290 291 291 290 290 290 290 290 290 289 289 289 288 286 286 285 283 283 283 282 283
290 289 287 290 286 283 278 279 288 283 281 276 277 277 285 291 295 295 294 294 294 296 296 297 297 298 299 299 300 303 303 302 303 301 300 299 298 298 297 298 298 299 300 301 302 301 301 301 301 300 300 300 300 299 297 296 296 297 297 296 296 295 296 297 297 295 294 294 293 292 292 290 289 289 290 290 290 290 290 290 290 290 289 289 289 289 288 287 285 284 283 284 283 283 282 282 283
Wind_Speed
9 7 6 5 4 3 3 2 1 2 2 4 4 1 2 2 3 4 5 5 4 2 3 3 5 6 5 2 5 11 7 6 3 0 1 3 0 4 5 8 10 9 9 9 8 6 6 7 9 10 10 9 9 9 10 12 12 12 12 11 11 12 13 14 14 14 15 15 15 15 16 16 15 15 15 15 15 15 16 15 15 15 15 16 17 19 19 19 20 20 20 21 20 20 20 19 17
7 7 5 3 2 1 2 6 1 2 2 5 5 5 1 2 2 4 4 7 4 2 2 4 5 4 3 4 1 6 11 9 6 6 5 6 4 3 4 8 9 10 7 8 9 7 6 6 9 10 10 9 10 10 10 12 12 12 12 11 11 12 13 14 14 14 14 14 15 15 16 16 16 16 16 15 15 15 15 15 15 15 16 18 18 18 19 19 19 20 20 20 20 20 19 18 17
6 7 6 4 2 2 5 1 1 3 4 6 4 3 3 4 4 9 9 8 7 5 4 4 4 1 0 3 2 5 3 8 11 9 6 9 8 3 5 5 6 9 9 7 7 9 6 6 8 10 11 11 11 10 10 11 12 12 12 11 11 12 13 13 14 14 14 14 15 15 16 16 16 15 16 15 14 14 14 14 15 17 17 15 16 16 17 18 19 19 20 20 20 20 19 18 16
5 6 3 3 2 4 2 1 3 4 4 5 4 3 2 6 8 8 6 5 4 4 3 2 1 1 4 5 3 5 5 4 6 9 7 9 6 7 5 7 7 6 6 6 7 7 7 7 9 11 11 11 11 10 10 11 11 11 12 11 11 12 12 13 13 13 14 14 15 15 16 16 15 15 15 15 14 14 14 14 14 16 17 17 16 18 19 19 20 20 19 20 20 18 18 16 15
4 4 4 3 2 2 2 2 2 6 5 2 4 3 4 8 8 7 5 3 2 2 1 3 3 2 2 1 3 1 2 5 6 6 5 4 10 8 5 2 6 6 7 8 8 8 8 10 11 10 11 12 12 11 10 11 11 11 11 11 11 12 12 13 13 14 14 14 15 16 16 16 15 15 15 14 14 14 14 17 16 16 15 15 18 18 19 21 21 20 20 19 18 18 16 15 15
6 3 3 2 2 0 1 2 2 6 2 1 5 3 5 8 8 7 5 4 3 2 3 1 2 3 1 4 3 3 1 2 4 8 6 3 7 10 7 3 5 7 8 8 8 7 7 9 11 11 12 12 11 11 11 11 11 11 11 11 11 12 12 13 13 14 15 14 15 15 15 15 15 15 15 14 14 14 14 16 17 18 20 18 17 18 21 22 20 20 20 18 18 17 16 16 16
2 2 2 1 3 1 2 1 5 4 3 4 4 4 7 7 8 8 7 5 2 3 2 2 0 2 4 1 5 4 4 3 4 2 5 5 6 7 9 5 6 7 8 9 7 8 8 9 10 10 10 10 11 11 10 11 11 10 10 11 11 11 12 12 13 14 15 14 15 15 15 15 14 15 14 14 13 13 14 15 18 18 19 18 17 19 21 21 21 19 18 18 17 17 15 15 15
2 0 0 1 2 2 2 5 6 3 1 4 5 7 7 9 7 5 7 4 3 2 2 2 1 1 2 4 3 1 8 7 9 8 9 5 4 8 6 5 7 7 8 9 8 7 9 9 9 10 11 11 10 10 11 11 10 10 10 11 11 11 12 13 13 13 14 14 14 15 14 14 14 14 14 14 14 13 14 14 14 18 18 18 19 20 20 20 19 18 18 17 17 16 15 15 15
2 2 1 2 2 0 1 5 4 4 3 4 4 7 8 7 6 5 4 4 4 4 4 3 3 0 3 5 5 3 4 7 8 9 8 7 4 4 6 4 7 7 7 9 8 7 6 9 8 10 10 10 10 11 11 10 10 10 10 10 11 11 12 13 13 13 13 14 14 14 14 14 14 14 14 14 14 14 15 15 14 14 13 15 17 18 18 18 18 18 18 17 16 16 15 15 15
2 2 0 1 2 2 2 3 4 3 4 4 4 4 4 3 5 5 5 5 4 4 4 4 3 1 4 7 4 3 5 7 8 8 8 8 6 3 4 6 7 8 7 9 8 7 6 7 9 9 9 9 10 11 11 10 10 10 9 10 11 11 12 13 13 13 13 14 14 14 14 14 14 14 14 14 15 15 15 15 17 18 17 16 16 16 16 16 16 16 16 16 16 16 15 16 16
2 1 1 2 3 3 2 5 5 3 5 3 4 4 3 1 2 2 4 6 4 3 3 4 2 1 2 5 3 2 8 9 8 8 6 8 6 4 3 2 5 6 8 8 8 8 7 6 8 8 8 6 7 8 8 8 10 10 8 9 11 11 11 12 13 13 13 13 13 14 14 14 14 14 14 14 14 14 14 14 16 16 16 15 15 14 14 15 15 16 16 16 16 16 16 16 17
1 2 0 3 4 1 3 5 5 5 5 4 3 4 1 3 1 1 3 6 2 6 4 4 0 1 2 4 2 3 7 7 7 7 6 6 5 4 3 3 4 5 10 7 9 8 7 6 5 7 8 7 5 6 7 7 7 7 7 10 11 10 11 13 13 13 13 13 13 14 14 14 14 14 14 14 13 13 14 14 15 14 15 15 15 15 15 15 16 16 16 16 16 16 16 17 17
1 2 2 2 4 4 1 2 4 4 4 3 6 3 2 3 2 2 2 3 3 3 4 3 1 1 1 3 2 5 6 5 9 7 7 5 5 3 3 3 3 5 9 8 8 8 8 7 6 5 6 8 5 5 6 6 7 7 7 9 11 10 10 12 13 13 13 13 14 14 14 13 13 14 14 13 13 13 15 15 15 15 15 14 14 14 15 15 16 16 16 16 16 16 17 17 16
0 2 1 2 1 2 1 2 3 3 3 5 5 5 4 3 3 1 5 1 4 2 1 3 0 1 3 5 2 4 5 7 9 6 5 6 5 3 2 6 5 5 7 7 6 7 8 7 7 6 5 6 5 5 5 5 6 7 8 8 10 10 10 10 12 12 12 12 12 12 12 12 12 13 13 14 14 13 13 14 14 15 15 15 14 14 15 15 16 16 16 16 16 16 17 17 17
1 3 1 2 1 1 1 0 2 2 3 6 4 7 4 2 0 2 2 1 3 0 1 3 1 0 1 1 3 5 7 9 8 5 5 6 5 3 5 4 5 3 0 5 5 5 5 6 7 6 5 5 6 5 4 5 6 7 9 10 10 11 10 9 11 12 12 12 12 12 12 12 11 12 12 12 13 12 12 12 14 14 15 16 15 15 16 15 15 15 16 16 16 17 17 16 16
1 2 1 1 1 2 0 1 2 1 3 5 5 6 5 3 2 0 2 2 2 2 1 1 2 1 3 7 4 10 10 8 6 6 6 6 5 4 2 3 2 1 1 6 5 5 3 4 5 6 5 4 6 5 6 5 5 7 10 10 11 11 11 11 12 12 12 12 12 13 13 11 10 10 12 10 11 12 11 9 12 14 15 16 16 16 16 16 16 15 16 17 17 17 17 16 15
0 0 1 1 2 2 2 1 2 1 4 4 5 5 4 3 1 2 2 0 2 1 1 2 2 1 3 4 7 9 8 7 6 7 6 4 5 5 2 3 4 3 2 4 6 5 3 3 4 4 5 5 5 3 6 6 6 8 6 9 12 11 12 13 13 13 12 12 12 12 11 8 7 6 7 7 10 9 10 11 11 14 15 15 15 15 15 16 16 16 17 17 17 15 13 14 15
0 1 2 2 4 2 3 1 3 6 5 5 5 6 5 4 3 1 0 1 0 4 1 4 5 6 7 6 7 7 6 7 6 8 7 6 4 5 4 4 5 5 3 3 4 6 5 2 3 5 4 5 6 5 4 5 6 7 6 5 6 9 10 11 10 8 9 8 12 9 7 7 6 5 6 7 6 8 9 12 12 12 14 15 15 16 16 16 16 15 14 13 12 10 8 6 7
1 2 3 3 2 0 4 5 7 2 5 6 5 5 3 5 7 3 2 3 4 3 3 5 5 7 6 6 8 7 7 6 6 6 8 8 7 7 6 5 6 6 6 5 4 5 5 5 2 4 6 6 6 4 5 5 7 5 6 6 6 7 8 10 8 9 7 8 8 6 7 5 6 6 5 6 7 11 11 12 12 12 14 13 14 15 15 15 15 15 14 12 11 8 6 6 6
1 1 3 1 2 4 7 7 4 4 2 8 5 3 1 5 4 3 3 4 7 6 5 5 7 7 8 7 7 8 7 7 6 7 8 8 7 7 7 7 6 5 6 6 5 3 6 6 5 4 6 7 7 5 5 5 6 6 6 6 6 6 7 7 8 8 7 8 7 6 6 7 7 6 10 14 11 8 9 11 13 12 12 12 12 9 11 12 13 10 10 10 7 5 5 7 7
1 1 0 1 3 1 4 5 4 3 4 3 4 2 1 2 3 4 4 3 4 6 6 5 9 10 12 11 10 9 9 8 6 6 7 7 7 6 7 8 7 5 5 6 5 6 6 7 6 5 5 5 6 6 6 5 6 5 6 6 7 7 7 7 7 7 8 8 7 5 6 8 8 7 8 6 6 8 7 6 6 5 5 5 8 6 6 5 5 5 6 7 6 6 7 7 7
0 1 2 3 5 4 3 5 5 4 4 1 5 4 2 3 2 2 3 3 2 0 1 0 2 3 14 12 9 7 9 9 9 8 8 9 9 8 7 7 6 5 6 8 8 8 8 7 7 5 5 5 5 5 6 7 7 5 6 6 6 6 7 7 6 7 7 8 7 5 7 8 8 8 7 6 6 8 7 6 5 5 4 5 5 6 3 4 5 6 6 6 6 6 7 7 7
0 1 3 4 3 4 0 2 2 4 0 3 3 2 4 2 2 4 4 5 2 4 7 7 4 8 13 12 11 9 9 9 10 11 10 9 9 8 8 7 8 7 7 7 7 7 9 8 9 8 5 5 7 5 5 7 7 6 6 6 7 6 6 7 6 7 7 8 6 6 7 8 8 8 6 6 7 7 7 6 6 5 5 6 4 4 4 5 6 6 6 6 6 6 6 6 7
1 1 2 3 4 5 4 2 2 2 6 3 2 1 0 4 1 0 5 5 4 5 6 8 7 6 11 11 10 11 11 11 11 11 10 9 9 10 8 8 7 5 6 7 7 5 5 5 7 7 6 5 5 5 5 5 6 6 7 7 7 7 7 7 7 7 7 7 6 6 7 8 9 8 6 7 7 6 8 6 6 6 6 5 4 5 5 6 7 6 6 5 6 6 6 6 6
2 2 3 1 3 3 3 2 1 1 2 2 4 1 1 2 0 3 3 4 3 1 5 7 7 5 6 10 9 9 8 7 8 8 6 6 6 7 6 6 7 6 5 7 6 6 6 5 5 6 6 7 5 6 6 5 5 5 5 7 7 6 6 7 6 6 7 7 6 7 6 8 8 7 8 7 7 6 6 8 7 6 5 5 6 5 6 6 6 6 6 5 5 6 6 6 6
0 4 4 3 3 3 2 3 2 0 2 2 0 1 2 1 1 4 7 5 4 4 5 5 5 6 5 7 9 8 8 9 8 8 10 7 6 7 8 6 8 9 7 6 7 6 7 6 7 7 7 7 6 5 5 5 6 6 5 5 6 7 6 7 6 5 5 3 6 7 8 8 8 8 8 8 8 7 6 7 8 6 6 6 6 6 6 6 6 6 6 6 6 6 7 6 6
1 4 4 4 4 3 2 2 2 1 2 0 1 2 2 1 4 5 2 5 6 4 6 5 5 5 5 5 6 7 8 9 10 8 6 6 6 7 8 7 6 7 8 8 7 8 9 9 8 10 9 8 6 6 6 6 5 6 7 6 5 7 7 6 5 6 3 3 5 7 7 6 7 7 8 8 6 8 7 7 7 7 6 6 6 6 6 6 6 6 6 6 6 6 6 5 6
1 4 5 4 3 3 1 2 4 2 1 1 1 3 1 4 1 9 2 0 4 5 4 5 5 4 5 6 6 6 7 7 8 8 11 10 9 9 8 10 8 7 9 10 8 7 9 11 10 9 8 7 7 5 5 7 5 4 7 6 6 6 6 5 5 4 7 7 4 6 7 6 6 6 9 8 8 8 8 7 6 7 6 6 6 6 7 6 6 5 7 7 7 6 6 6 5
3 3 3 4 4 3 4 4 4 3 1 2 0 2 5 4 6 12 4 4 4 4 4 5 5 4 5 5 5 6 7 6 7 8 10 10 8 8 9 9 10 8 6 8 8 8 8 9 9 9 7 6 6 5 4 3 2 2 2 6 6 7 7 6 6 5 5 6 7 6 6 6 4 6 6 7 9 8 7 7 7 8 7 7 7 8 8 7 7 7 8 8 7 5 6 7 6
0 1 1 4 3 3 8 3 4 2 1 1 2 1 6 9 16 6 6 6 4 3 3 4 5 5 5 5 5 5 5 5 6 9 8 8 8 8 9 7 8 8 7 7 8 10 8 6 6 6 6 7 7 5 4 3 3 3 3 2 4 7 7 6 6 5 5 3 7 9 8 7 7 4 7 7 8 8 7 7 8 8 7 8 9 9 8 7 7 7 8 9 6 6 7 7 6
1 3 0 2 3 1 7 3 4 3 0 1 1 1 8 4 3 3 3 6 6 5 5 5 5 5 6 6 5 6 6 7 8 7 7 8 8 8 10 7 8 8 6 7 9 10 8 8 6 6 7 5 7 6 5 4 4 4 4 4 3 6 7 7 6 6 5 4 1 7 9 8 7 7 6 9 8 8 8 7 6 7 8 9 9 8 9 5 6 8 8 9 6 5 6 7 7
1 3 3 2 3 1 1 2 6 3 1 2 2 2 7 8 2 1 2 1 3 4 5 5 5 5 6 6 6 6 7 7 8 7 8 9 8 8 10 11 10 10 10 9 8 8 8 7 6 5 5 5 6 5 4 3 2 3 4 5 4 5 7 6 7 6 5 2 1 2 7 8 9 7 7 8 8 8 9 8 8 8 9 9 8 9 9 8 7 7 6 7 9 7 8 7 6
1 3 1 3 2 3 2 2 1 4 4 1 5 3 3 0 4 4 4 4 3 3 4 5 5 5 5 6 7 6 6 6 8 8 9 9 9 8 9 10 11 11 9 9 9 7 8 8 7 6 7 6 6 5 4 4 2 2 1 1 1 5 6 7 6 6 5 3 0 3 3 8 8 8 9 10 9 9 9 9 8 10 9 9 9 9 8 8 8 7 6 5 4 8 8 8 7
4 3 3 0 3 5 3 2 1 1 2 2 4 3 6 7 3 3 3 5 6 5 7 6 5 5 5 5 6 7 7 7 9 10 10 11 10 10 8 9 9 10 8 9 9 10 10 8 8 7 7 6 6 7 5 5 3 1 1 2 3 0 4 6 6 5 5 3 2 4 3 6 8 10 10 10 9 9 10 10 10 11 10 9 9 9 8 8 7 9 9 5 5 7 8 8 8
4 4 3 4 0 3 1 3 4 3 0 2 3 7 9 10 11 8 5 7 6 7 7 7 6 6 6 6 6 7 7 9 10 10 11 12 11 10 8 7 7 9 7 9 9 8 7 8 7 8 8 7 7 7 6 5 4 2 2 1 3 1 1 3 6 6 5 3 3 4 4 5 7 10 10 10 10 10 9 9 11 11 10 10 9 9 9 9 9 8 9 8 6 5 7 7 8
5 2 2 2 3 4 3 2 2 3 3 3 5 7 6 8 10 9 8 7 8 9 8 7 7 8 7 6 6 6 7 9 7 9 12 11 10 10 9 8 7 8 8 8 9 9 8 8 7 7 7 8 6 6 6 6 5 5 5 1 2 2 4 3 4 6 6 5 4 5 5 5 5 9 10 10 10 10 10 10 11 11 10 11 11 10 10 10 11 10 9 11 10 8 7 8 7
2 1 1 3 4 2 4 4 2 1 1 4 7 7 8 9 9 8 7 6 6 6 7 7 6 7 7 7 7 8 8 9 6 9 11 11 11 10 8 8 7 7 7 9 10 10 10 11 10 11 8 8 8 8 8 8 7 5 3 6 6 5 4 4 4 4 6 5 5 5 5 6 5 7 9 10 10 10 10 10 11 10 10 11 11 12 12 11 10 10 8 8 12 11 8 7 7
1 2 3 4 2 1 2 2 0 4 2 2 3 5 8 8 6 6 6 6 11 11 10 9 10 8 7 8 9 10 9 3 5 5 5 6 7 8 8 8 8 11 10 10 11 11 10 9 11 10 8 9 9 9 8 7 6 6 6 6 6 5 4 6 5 5 5 5 5 5 5 6 7 7 9 10 11 12 11 10 12 12 12 10 9 9 10 11 11 10 9 8 5 11 9 9 9
2 1 2 1 3 3 3 4 1 0 1 6 5 6 10 9 7 6 8 11 12 12 10 10 8 7 8 8 9 10 7 7 6 6 6 7 7 7 7 7 7 8 8 9 7 7 8 9 9 8 9 9 7 7 7 7 4 5 6 4 7 3 1 2 2 3 5 5 5 5 4 5 7 7 9 10 11 11 12 12 11 10 10 10 10 10 11 12 12 12 12 12 10 4 7 7 10
1 2 1 2 1 1 1 1 1 2 2 3 5 7 12 15 11 13 16 13 13 12 9 7 7 8 6 8 7 6 8 8 8 8 8 7 8 8 7 8 8 6 6 5 7 9 8 7 7 8 8 6 6 5 6 5 5 4 4 3 5 4 3 3 3 3 4 5 5 4 3 4 4 6 7 9 9 11 12 12 11 11 11 10 12 12 11 11 11 11 10 11 13 12 8 9 8
4 3 1 2 1 1 1 2 2 2 1 4 6 8 8 10 10 5 8 12 11 13 8 7 8 7 8 6 5 6 7 6 7 7 7 8 8 9 10 7 6 7 7 8 8 9 8 9 8 7 7 7 5 5 6 6 5 6 6 6 5 6 4 3 3 3 4 4 4 4 5 2 3 6 7 8 8 10 11 11 12 12 11 11 10 11 12 13 14 13 13 12 13 14 11 8 8
2 6 7 5 2 3 4 4 4 2 2 1 0 6 5 1 5 8 1 2 3 4 6 8 9 9 7 7 9 7 6 5 5 6 10 10 11 7 5 7 7 7 8 8 8 8 7 7 7 6 7 7 7 6 6 7 7 7 7 7 7 6 6 6 9 10 7 7 6 3 3 2 3 5 6 8 8 9 11 12 13 12 12 11 10 11 11 10 11 12 12 12 11 9 14 11 9
1 1 5 3 1 4 2 3 2 2 0 1 1 0 9 3 8 6 5 5 6 3 6 9 9 9 7 9 7 7 6 5 4 3 6 8 7 7 6 7 8 8 6 5 6 6 6 7 7 7 8 7 7 7 7 7 6 6 8 7 6 8 8 6 3 3 6 4 5 5 4 3 2 6 6 7 8 9 9 10 11 11 12 11 10 10 11 12 12 11 9 9 9 9 9 12 12
2 1 2 1 3 3 2 1 1 3 1 3 6 5 6 9 9 7 13 15 9 6 6 9 10 8 8 7 8 6 5 5 5 5 5 8 8 10 10 8 7 8 6 6 6 6 7 8 7 7 7 7 6 7 7 8 7 6 7 7 6 6 6 5 5 4 4 5 5 5 5 4 3 3 6 7 8 9 10 10 9 9 10 10 10 10 11 10 9 7 9 9 9 9 11 11 9
1 1 3 3 4 4 1 1 1 2 3 7 4 3 2 6 3 7 10 8 7 9 8 8 8 6 6 3 4 5 5 5 6 5 5 5 8 7 7 7 6 6 7 7 7 7 6 7 8 7 8 8 7 8 8 8 7 7 7 7 7 6 5 5 5 5 6 5 6 5 5 4 4 3 4 6 7 8 9 11 10 10 10 10 10 9 9 11 13 12 10 9 9 8 9 7 8
2 2 2 4 3 2 3 1 1 3 2 8 5 5 3 14 7 5 6 7 7 8 7 10 8 7 4 7 5 5 4 4 3 4 3 4 5 6 6 7 6 6 6 6 6 6 6 7 8 8 7 7 7 8 8 8 8 7 8 9 8 7 6 5 6 6 6 6 6 6 5 5 5 4 4 4 5 6 8 9 10 11 11 11 10 10 10 11 10 10 10 11 9 9 7 8 8
5 3 5 2 1 2 1 1 1 2 4 7 10 9 3 7 8 7 7 7 9 6 6 7 3 4 5 5 6 5 4 4 4 4 4 4 4 5 6 7 6 5 5 6 6 7 6 7 8 9 8 7 9 8 8 8 8 8 9 9 9 8 7 7 7 6 6 6 7 6 6 6 5 5 4 4 5 6 7 8 9 10 10 10 10 10 11 11 11 10 9 8 7 8 8 8 7
2 1 1 1 1 3 1 0 2 2 7 1 6 9 8 4 5 6 3 3 8 10 8 5 4 4 5 3 4 4 5 5 5 5 4 5 4 4 4 6 6 6 6 7 6 6 6 6 7 8 7 7 7 8 8 8 8 9 9 9 9 7 9 8 9 9 9 9 8 7 5 5 5 5 3 5 5 6 7 8 9 9 10 10 11 10 10 10 10 9 9 8 7 7 7 8 8
1 3 3 5 2 1 2 1 1 4 7 1 2 4 3 14 10 3 0 1 5 4 3 2 1 3 5 5 5 5 5 5 5 5 5 5 6 7 6 6 6 7 8 7 7 6 6 6 7 8 7 7 7 8 9 8 9 9 10 10 8 7 8 9 8 8 8 8 8 8 8 7 5 6 6 7 6 8 8 9 9 10 9 10 11 10 10 10 10 10 9 8 7 8 8 8 9
4 7 7 5 2 2 4 3 3 2 2 2 1 5 5 10 7 6 7 6 6 6 5 1 0 2 2 5 5 5 5 6 6 6 6 6 7 6 6 7 7 7 7 7 7 7 5 6 6 7 7 7 6 8 9 9 9 9 9 9 8 7 8 8 7 8 8 7 7 8 9 9 9 9 9 9 8 8 8 9 10 10 9 9 10 9 11 11 10 10 9 9 8 7 8 8 8
8 2 8 8 6 4 4 4 5 6 3 0 3 2 8 2 3 3 2 2 5 6 5 3 4 5 5 3 6 6 6 6 5 6 7 7 7 7 8 7 7 7 7 7 7 6 6 6 6 7 7 7 7 8 7 8 8 9 8 7 6 5 7 7 6 6 7 7 7 7 7 7 9 9 10 9 8 7 8 7 9 10 10 11 11 10 8 9 8 8 8 9 7 7 8 8 8
3 3 1 3 8 0 3 1 0 1 1 2 2 6 2 4 2 2 1 2 3 3 6 7 6 6 2 3 5 7 7 7 6 6 6 7 7 7 7 7 7 6 7 7 7 7 7 7 7 8 8 8 8 7 7 8 7 8 9 9 8 5 5 6 5 5 6 7 8 8 8 8 7 8 7 8 9 9 8 8 8 8 8 8 9 9 9 9 9 9 7 8 8 5 8 8 7
5 4 6 6 1 1 1 2 2 2 2 10 3 7 8 4 13 13 15 13 10 6 7 6 6 6 5 6 8 6 6 7 7 7 7 7 6 6 7 7 6 7 7 8 8 8 9 8 8 8 7 6 7 6 7 7 7 8 9 10 9 6 7 7 7 6 7 6 7 7 7 7 7 7 7 8 9 9 7 8 8 7 8 8 8 8 9 8 9 9 9 9 8 6 8 9 8
7 3 5 2 2 2 3 4 1 2 6 8 5 9 12 1 13 1 7 7 9 7 6 6 6 6 7 10 8 7 8 6 7 8 7 7 7 7 6 6 7 8 8 8 9 8 8 8 9 9 8 9 7 7 7 7 8 9 8 9 9 8 7 7 6 7 6 6 5 6 6 6 8 8 8 8 9 9 8 7 6 6 6 7 8 8 8 9 9 8 9 9 9 9 8 7 7
2 5 1 5 2 3 2 2 6 5 4 5 5 5 8 10 15 5 2 4 6 7 8 8 8 8 9 9 9 10 3 4 5 6 6 5 6 7 7 7 6 7 7 8 8 9 8 8 9 9 10 10 9 7 6 6 7 7 7 9 9 8 7 6 6 6 6 7 7 7 7 7 6 6 8 8 9 8 8 7 7 6 6 7 7 7 7 8 8 9 8 8 8 9 9 8 7
0 2 1 1 1 2 6 6 1 3 7 2 12 2 11 6 7 4 9 7 10 10 8 9 11 9 9 8 9 8 5 6 6 6 6 6 7 7 8 8 8 9 8 8 9 8 10 9 9 8 7 7 8 8 8 9 8 7 6 6 7 8 7 7 7 7 7 7 8 8 7 7 7 6 7 7 8 9 9 9 8 8 7 6 7 7 7 8 8 8 9 8 8 9 10 10 8
1 1 2 0 1 1 3 3 4 4 2 4 3 10 10 7 6 6 8 8 10 12 11 9 7 8 8 9 8 5 6 6 7 8 7 7 6 6 6 6 6 5 6 7 8 10 9 8 9 9 10 9 9 9 9 9 8 9 8 8 8 8 8 7 7 7 7 7 7 7 7 6 6 6 6 7 8 8 8 8 9 9 9 8 8 8 7 8 8 8 8 9 9 10 11 9 9
13 14 13 14 9 4 3 8 1 1 3 3 2 12 14 8 5 5 2 2 4 9 10 8 7 7 8 6 6 6 5 5 5 5 5 5 5 5 5 5 5 5 6 8 7 7 8 10 10 10 9 9 9 9 9 8 8 8 9 9 9 8 8 7 8 7 7 6 6 6 6 6 7 6 7 7 7 7 7 8 9 9 8 8 8 9 8 8 9 9 8 8 10 11 11 11 10
Wind_Direction
303 283 247 221 226 247 315 201 297 206 215 94 126 210 95 81 120 115 104 172 108 31 40 70 36 40 37 53 54 75 37 55 0 97 164 153 21 154 135 121 126 130 124 122 125 130 130 133 127 124 119 115 112 116 117 110 108 105 106 106 99 93 86 83 80 80 80 80 81 80 79 76 75 75 78 79 80 82 82 82 88 90 88 83 79 79 78 76 74 70 69 66 63 62 59 60 65
294 288 273 244 248 31 246 169 268 270 105 84 65 90 127 79 225 124 99 63 58 100 80 54 69 71 359 37 11 133 51 48 64 89 73 105 113 65 133 127 138 125 130 129 137 132 125 133 130 126 120 119 112 115 117 110 106 108 109 105 101 93 87 85 83 82 81 81 82 81 80 78 77 77 77 77 79 80 84 88 86 83 84 85 83 80 76 76 73 71 69 68 64 60 58 63 67
304 313 300 214 254 204 297 224 287 187 129 101 61 73 146 172 85 60 73 83 89 88 70 71 93 105 346 231 80 33 100 92 92 97 109 146 126 162 229 152 130 130 137 142 127 122 128 135 138 125 119 120 118 121 117 113 110 108 107 104 99 92 87 83 83 81 80 80 80 80 79 79 79 79 79 78 79 81 83 81 83 84 80 80 79 81 84 80 76 74 72 69 64 61 62 71 61
280 263 265 311 280 155 247 205 210 310 100 122 102 166 184 87 82 86 80 96 89 114 127 117 108 316 3 47 36 101 98 79 82 117 135 174 135 155 195 119 135 128 128 120 121 115 116 140 137 126 124 122 124 124 122 113 110 109 107 107 101 96 92 88 85 82 80 79 79 78 77 78 79 79 81 83 81 81 84 90 87 81 80 80 83 81 83 85 81 77 74 69 65 63 67 65 57
251 249 213 265 257 241 311 236 314 34 37 19 120 179 97 102 105 101 86 88 112 84 99 91 87 1 90 24 10 59 72 87 120 126 98 79 121 146 121 83 132 126 126 117 115 106 120 135 131 131 128 129 127 126 119 117 113 113 113 113 106 103 99 95 91 89 86 85 83 83 82 81 81 81 79 80 83 85 82 77 78 83 91 95 88 91 86 82 78 76 73 70 67 67 65 59 52
239 263 229 175 252 75 309 333 43 70 49 321 125 117 99 106 111 114 117 84 69 53 28 86 41 175 72 50 351 83 198 133 115 90 123 107 116 119 115 200 146 140 131 111 110 115 121 123 127 134 133 131 129 125 121 121 119 116 118 118 115 108 104 101 97 92 91 89 88 87 87 88 87 86 86 86 86 84 84 80 74 69 67 76 85 84 80 78 78 76 72 69 67 66 63 56 49
310 311 197 222 276 182 247 266 80 95 340 5 101 116 106 103 113 124 118 109 76 97 346 58 303 104 116 123 80 73 26 69 116 43 91 122 119 123 136 200 147 138 130 117 112 113 116 123 130 128 129 132 132 126 124 121 121 121 123 123 120 112 107 103 98 96 95 93 92 92 91 91 91 89 87 86 84 83 85 86 83 78 77 76 76 78 77 76 75 75 73 69 68 68 63 56 50
253 42 124 222 280 117 250 81 54 50 19 31 18 101 106 116 132 130 149 144 148 150 219 49 241 330 64 199 103 338 70 59 100 103 102 102 99 133 161 201 142 135 120 104 107 111 119 116 121 126 130 133 132 129 129 126 123 126 127 127 123 118 112 104 99 97 95 96 96 97 97 97 95 93 92 91 87 85 83 83 86 82 80 77 74 73 76 79 80 80 77 74 70 67 61 56 49
255 168 275 37 305 278 35 67 94 90 109 73 45 60 101 129 149 133 146 85 150 118 165 187 95 179 171 88 74 129 83 98 104 112 114 115 141 150 169 174 136 126 119 113 117 121 114 115 118 125 132 135 135 136 133 132 128 128 131 131 128 122 114 107 102 99 98 97 98 99 100 100 100 98 95 92 89 85 85 85 87 80 85 83 79 77 79 81 82 82 81 78 74 68 61 56 50
281 148 297 229 259 235 115 134 104 107 99 110 123 110 110 143 139 157 116 157 121 122 75 64 91 76 167 106 123 156 137 122 123 115 131 145 143 174 161 202 121 129 128 121 130 124 117 111 115 115 122 136 139 141 139 137 135 133 136 136 132 128 119 113 106 102 101 101 101 101 100 99 98 97 93 92 90 89 89 90 83 77 77 78 82 83 84 86 88 89 86 81 76 69 62 57 49
267 153 197 6 261 210 164 105 108 122 103 95 106 113 115 135 123 139 152 102 152 116 124 129 149 167 204 90 87 330 126 129 136 132 133 131 141 167 169 235 131 136 128 132 125 120 124 114 106 105 111 109 135 145 138 139 140 140 136 133 133 131 124 118 111 109 106 105 103 102 100 98 96 96 95 92 92 93 95 95 88 85 87 88 88 90 92 92 94 90 86 79 74 68 62 56 51
271 224 128 270 274 77 47 105 102 90 120 129 113 123 179 130 154 148 109 124 130 121 141 186 131 68 190 125 113 182 132 152 132 133 121 123 140 171 151 220 135 128 128 125 129 133 131 125 116 105 98 107 110 128 138 142 138 133 131 135 137 132 131 123 118 112 111 109 107 104 103 100 98 96 95 95 94 95 95 92 93 95 94 93 95 97 97 97 93 90 84 78 72 68 63 57 52
251 296 213 269 278 59 324 88 102 123 123 196 138 134 144 135 181 162 147 122 138 143 133 174 96 58 13 81 122 131 148 141 112 124 135 151 138 165 178 171 81 127 123 138 142 142 138 141 130 126 112 107 112 129 134 142 135 127 133 138 138 139 137 130 122 116 113 111 107 103 102 100 99 98 97 96 95 95 95 94 98 98 98 97 99 101 100 99 94 88 81 77 72 68 63 60 52
16 275 271 241 298 62 15 88 136 152 178 124 121 131 165 148 217 168 133 159 142 156 16 73 19 34 119 101 139 157 149 116 121 131 161 129 129 163 69 55 61 19 126 135 140 148 141 151 140 131 135 130 126 123 128 139 135 126 130 133 134 136 131 130 119 117 111 105 101 99 97 97 98 99 98 98 96 93 96 100 100 101 100 100 103 104 105 104 101 94 82 78 74 68 62 59 52
307 328 322 286 313 52 39 77 156 200 69 104 127 143 161 92 349 28 16 137 51 97 167 28 29 50 355 224 171 177 137 122 125 138 109 108 126 105 81 70 41 21 353 123 125 124 141 149 133 139 151 154 143 145 144 145 139 124 131 133 135 136 135 127 115 111 111 108 105 101 96 91 88 88 89 92 95 89 90 94 100 102 102 99 105 106 107 104 101 94 83 80 75 70 65 59 53
323 9 308 281 241 144 227 140 20 23 149 118 168 131 136 77 11 172 69 9 119 13 331 75 356 52 62 66 86 116 118 119 126 125 117 117 111 90 87 104 85 356 65 95 90 93 96 109 138 152 163 169 149 154 144 150 145 141 142 141 139 138 134 124 119 118 116 112 110 107 105 98 93 90 88 86 87 88 90 94 100 101 101 101 102 104 103 101 100 97 89 84 79 75 68 60 53
234 120 310 231 293 151 184 136 146 107 106 117 149 152 150 148 219 63 211 303 132 150 129 108 107 105 74 111 110 105 106 110 127 133 117 117 115 115 159 142 134 212 104 128 122 121 116 160 154 158 165 167 141 154 143 150 147 138 136 141 140 139 133 131 127 124 122 123 121 121 113 110 107 100 91 93 88 92 94 93 96 101 102 102 102 102 102 103 103 98 94 89 84 78 70 62 56
294 225 230 247 219 126 173 140 135 155 129 153 169 179 145 127 168 118 73 107 226 121 186 105 71 63 102 112 112 107 116 129 153 146 144 138 147 147 166 188 167 178 140 166 144 145 150 163 170 172 160 162 158 158 142 150 149 161 150 145 141 140 134 132 132 136 135 137 138 134 125 130 124 107 104 100 99 96 91 94 96 102 104 105 105 105 106 105 102 97 92 87 82 75 68 58 52
168 247 198 249 11 349 359 60 38 34 117 159 166 195 191 157 149 172 155 186 184 169 190 155 134 104 101 121 121 133 139 146 165 166 157 157 169 163 172 186 191 160 169 168 160 154 154 162 181 184 155 166 162 156 148 157 158 170 156 156 145 148 145 146 144 144 148 150 157 149 143 143 117 126 127 111 105 96 96 97 99 102 105 103 104 105 104 103 101 98 92 86 78 66 59 52 51
238 72 250 89 130 60 40 51 69 42 347 137 148 188 182 120 135 147 214 182 172 202 187 174 179 168 158 151 152 145 156 156 176 177 173 166 179 172 169 185 198 194 164 169 159 173 172 166 188 181 174 165 152 161 156 164 165 174 161 164 154 157 159 163 153 158 158 166 174 165 163 128 120 111 107 115 111 101 92 91 96 97 98 96 95 96 98 99 97 90 76 60 51 50 57 59 58
40 83 44 356 312 75 28 52 43 25 8 105 120 86 136 145 116 170 188 277 206 203 206 177 196 176 173 161 158 157 158 162 178 194 182 179 182 184 175 183 194 192 162 155 153 185 193 176 178 191 187 167 160 162 163 170 174 173 165 167 163 163 168 175 166 169 164 177 190 185 137 118 120 126 131 135 122 117 114 112 109 110 111 106 103 104 108 109 98 75 62 55 49 49 50 49 54
267 107 79 3 357 75 25 70 22 358 292 66 106 138 181 80 60 192 220 192 219 185 350 331 65 164 152 155 156 162 163 167 180 194 194 186 186 189 175 172 194 197 160 163 182 184 189 176 169 190 194 171 170 168 168 174 171 180 160 169 165 173 168 177 176 175 174 181 194 144 123 124 129 135 152 148 135 130 130 138 134 136 128 126 129 132 131 93 73 71 73 70 60 59 63 61 60
178 100 86 55 7 94 72 86 359 324 306 118 168 37 77 141 177 196 230 221 135 125 102 79 54 110 146 142 149 170 172 179 181 193 195 190 189 195 188 172 184 194 171 174 178 186 175 175 169 178 191 169 173 182 184 159 172 182 169 165 173 174 171 185 186 185 179 182 182 144 139 141 143 153 162 149 148 145 145 151 145 141 143 149 162 132 111 96 80 75 75 78 77 76 70 71 69
17 86 101 42 39 77 32 80 347 359 354 49 15 255 101 121 242 157 202 222 232 109 109 108 101 101 130 142 164 173 182 181 191 193 196 197 189 194 189 175 177 194 159 173 175 153 161 183 163 166 189 187 178 188 187 164 164 169 182 176 179 175 173 191 186 188 180 186 169 162 148 150 154 165 161 154 156 161 151 150 144 148 161 168 140 121 107 88 84 82 83 77 80 73 76 70 74
217 139 111 99 84 79 85 100 85 16 49 1 12 31 252 40 297 18 258 239 252 164 120 123 119 118 144 148 170 178 181 187 192 191 193 203 200 195 197 168 169 185 175 170 159 155 172 181 175 175 177 195 189 188 193 163 168 189 163 166 187 172 175 181 187 183 193 186 175 172 166 156 163 169 156 162 160 166 154 138 144 167 159 134 121 100 99 102 103 101 99 95 82 76 71 65 68
303 80 108 134 94 116 118 109 105 190 83 7 258 251 103 116 110 264 249 240 212 206 128 134 133 132 164 170 176 177 183 188 186 184 195 193 196 187 196 191 172 187 177 160 160 173 167 174 180 179 184 189 186 193 193 177 181 171 177 177 174 168 179 174 188 190 184 178 189 181 178 167 169 166 160 167 164 155 141 141 148 157 130 125 114 112 106 100 102 99 94 92 87 80 75 72 76
335 130 116 115 125 114 243 139 122 63 63 185 307 266 125 308 107 274 234 233 203 157 149 154 150 173 178 185 187 183 184 190 187 183 173 181 204 196 191 193 188 181 161 181 178 173 168 176 184 184 188 183 188 190 182 199 195 174 173 181 169 164 164 168 172 173 199 193 198 180 184 171 170 164 163 169 155 147 146 145 144 133 118 106 103 97 94 100 103 104 108 102 93 89 86 81 81
89 95 93 99 158 123 189 163 140 172 93 241 276 289 316 154 151 237 180 209 127 161 189 180 169 196 204 202 195 194 191 193 181 170 181 181 195 197 190 188 191 181 174 183 185 162 162 180 187 191 190 173 176 201 182 186 199 188 171 172 172 157 148 158 176 170 181 205 203 196 185 177 175 172 167 165 153 149 150 145 129 113 112 103 98 97 96 94 98 91 89 88 91 95 98 85 76
136 168 141 157 141 169 183 176 179 221 116 256 50 290 264 180 218 240 186 144 152 179 189 203 195 197 214 220 200 187 197 193 176 182 191 191 190 190 196 191 185 186 185 177 171 165 175 179 180 192 190 167 167 185 168 171 213 240 187 174 177 156 152 155 168 181 178 182 199 180 209 178 162 162 158 152 149 147 146 133 124 124 122 119 111 106 97 92 93 99 92 96 94 98 95 86 76
132 268 319 147 186 225 193 136 125 165 93 181 80 0 257 219 220 239 154 149 140 165 208 203 194 195 201 203 204 193 187 190 195 191 188 185 181 189 198 193 180 181 176 177 168 177 175 174 175 181 190 162 171 182 174 167 199 234 254 222 170 146 147 154 165 164 174 192 192 179 185 174 169 158 152 143 154 144 133 132 133 126 125 121 117 114 106 107 116 113 111 105 110 108 102 91 91
163 181 140 224 150 277 150 148 164 172 239 208 37 215 288 343 19 104 136 153 153 198 215 224 217 205 196 194 193 198 202 193 204 196 187 185 182 184 193 192 183 182 175 183 187 175 163 167 172 179 177 168 162 175 176 175 176 188 221 246 196 147 151 154 160 153 155 174 254 182 178 173 178 168 149 148 148 143 137 129 121 132 131 126 122 122 120 124 125 124 126 121 126 108 101 102 100
231 82 266 261 221 131 193 52 158 184 269 204 175 240 254 267 166 134 83 97 181 214 235 233 226 219 195 182 191 201 210 201 204 197 189 191 186 186 185 192 184 184 186 185 181 164 159 157 162 148 158 152 150 157 159 165 179 195 203 224 227 158 152 152 149 143 136 105 259 244 169 159 170 159 139 141 140 143 138 135 138 137 135 131 131 131 130 137 135 127 126 127 128 124 112 101 90
228 176 267 174 217 161 197 258 102 51 115 238 188 237 304 252 162 161 180 170 180 233 257 249 241 230 218 183 188 203 209 208 201 198 189 189 197 189 187 186 184 183 178 174 178 166 164 156 164 156 168 161 151 154 153 155 171 213 296 324 284 158 147 152 149 135 116 128 172 258 189 152 155 151 144 144 141 143 137 136 144 144 142 137 138 135 136 141 142 135 107 104 123 125 116 107 97
208 175 231 206 179 162 205 14 275 154 195 187 227 257 250 272 254 167 229 181 172 202 225 233 231 222 218 208 195 196 200 201 202 197 194 187 195 193 185 186 177 175 175 173 176 174 175 160 168 167 162 170 159 157 157 155 147 94 47 358 350 84 153 143 136 129 127 125 187 230 232 161 157 155 153 151 147 149 146 144 147 149 146 141 138 141 144 141 134 129 129 139 132 126 121 119 114
190 183 213 254 220 280 177 163 181 157 231 280 203 215 251 270 284 279 213 200 194 207 214 221 228 239 240 228 217 208 202 203 210 195 194 191 188 188 177 178 168 173 175 170 167 170 167 157 160 169 161 169 159 149 149 140 123 113 56 28 329 298 46 120 137 132 130 136 209 217 219 186 158 156 154 155 150 148 145 147 151 155 148 145 143 143 143 140 140 144 142 130 112 105 120 118 118
22 58 186 223 211 217 210 61 156 187 156 214 239 243 244 244 252 253 258 233 213 220 223 228 227 228 233 233 231 223 215 218 207 191 193 190 183 178 174 173 171 175 174 172 168 168 170 154 161 169 170 166 147 140 143 141 143 146 170 185 265 230 128 102 132 145 139 155 211 223 201 198 169 159 156 158 153 154 151 156 156 155 151 148 147 148 146 158 153 147 150 138 126 109 98 114 123
356 4 27 344 16 11 84 89 53 5 5 243 232 246 252 257 260 268 270 268 259 251 244 241 229 222 222 224 231 233 227 225 204 195 186 184 176 173 165 166 169 170 177 179 174 174 176 165 164 176 175 167 161 159 167 167 166 160 168 198 199 193 165 150 151 137 140 154 184 220 196 190 181 163 159 155 154 152 153 153 153 157 156 156 158 159 160 151 147 144 144 141 135 129 127 128 129
22 15 9 318 129 330 49 122 174 17 65 294 305 290 271 265 258 258 258 263 260 248 245 245 244 232 222 218 230 232 233 230 197 202 173 158 157 159 157 163 166 172 189 183 184 179 176 165 172 173 174 176 177 173 168 172 175 178 172 190 190 187 168 164 168 153 149 150 173 203 199 183 182 171 163 156 155 156 154 159 161 164 164 160 152 147 145 142 148 152 149 133 138 139 140 151 153
76 1 358 27 296 123 70 69 1 124 96 263 275 287 281 271 259 258 248 242 251 248 232 236 237 241 232 220 225 229 223 223 194 189 157 156 151 154 160 171 185 185 180 183 179 166 173 172 176 172 179 178 180 166 159 170 165 166 171 172 192 178 72 86 114 134 135 149 176 190 196 193 177 172 168 160 159 163 161 161 164 157 167 150 145 151 154 155 161 157 162 148 142 131 128 159 167
310 154 138 218 206 72 294 7 4 235 200 285 324 305 280 277 260 244 243 241 246 254 250 244 230 236 237 230 218 211 215 209 195 184 179 166 162 165 169 179 184 173 171 175 175 175 178 176 179 173 177 169 166 164 148 150 157 151 141 173 161 133 153 109 97 95 115 135 162 172 191 202 177 165 163 162 163 165 164 165 157 161 163 164 156 155 161 159 157 161 167 160 146 142 158 171 195
207 215 226 238 222 157 89 149 237 210 236 31 318 295 271 255 268 270 247 231 237 256 271 268 255 241 239 243 250 222 217 203 199 191 177 162 167 184 185 177 163 176 179 181 179 179 183 184 178 168 162 162 160 156 153 143 118 100 100 81 85 85 73 128 130 156 164 157 139 174 184 181 169 163 165 165 163 167 167 164 164 164 163 164 160 160 164 170 171 169 166 162 167 153 158 166 191
245 204 189 212 284 357 44 31 20 346 297 249 29 347 299 297 224 239 274 89 221 246 232 246 247 247 245 245 240 243 240 222 195 188 178 175 183 177 166 169 173 183 186 188 181 180 169 172 168 160 149 152 160 164 158 136 151 150 143 150 163 178 185 185 194 190 177 179 177 142 126 171 173 162 167 171 168 168 171 170 166 163 164 165 167 168 164 160 169 173 177 169 163 167 155 163 176
25 297 354 9 313 67 70 13 53 337 297 240 230 20 274 319 293 279 289 269 247 238 208 237 242 244 234 230 229 227 215 219 206 190 141 168 175 164 174 176 180 184 194 172 172 174 160 162 163 166 152 154 160 165 157 151 156 166 177 182 188 195 197 203 183 149 160 151 139 159 156 150 175 164 168 170 170 172 170 168 168 166 163 163 160 160 167 174 174 176 169 167 166 154 157 167 174
245 315 310 33 91 87 84 82 149 235 315 273 176 178 260 286 258 235 244 249 247 243 223 233 240 236 227 213 211 201 186 168 166 181 175 164 166 169 178 182 179 184 175 167 167 169 162 163 162 163 146 153 165 167 157 166 165 174 185 194 196 201 208 184 170 148 131 134 145 151 155 161 162 167 163 167 170 166 163 162 164 163 162 161 160 170 172 172 168 173 178 169 160 168 172 172 167
188 242 317 76 70 93 49 109 334 270 13 292 179 154 315 251 250 209 215 233 229 231 239 262 257 241 226 198 130 126 121 132 149 157 175 157 163 168 167 170 177 169 171 170 168 170 162 158 160 160 154 157 169 167 155 170 169 178 188 195 202 203 196 166 147 142 142 146 139 139 156 159 159 157 171 166 168 167 165 166 164 164 164 165 170 168 172 172 174 172 172 168 172 171 176 168 161
253 202 78 89 74 51 83 17 59 327 26 273 159 181 206 283 243 234 204 206 203 219 223 237 249 230 170 113 118 113 110 94 84 122 120 117 139 154 155 153 159 174 169 158 157 159 163 156 164 168 164 160 158 158 159 170 174 177 193 199 202 195 188 160 149 154 153 156 151 155 155 162 162 157 169 173 164 168 167 164 165 167 168 166 170 172 169 174 177 179 178 175 170 165 160 163 170
144 171 84 48 48 85 1 74 75 28 258 253 162 194 180 287 289 198 158 199 188 182 238 251 220 107 103 129 145 157 149 134 128 107 99 89 91 123 127 150 163 157 156 155 161 168 168 164 169 175 173 161 156 164 162 174 181 189 197 200 198 193 174 157 153 158 152 161 164 160 165 163 159 162 160 179 173 170 171 167 168 171 169 166 172 169 175 177 179 175 177 175 170 160 166 158 153
128 110 123 81 359 36 38 354 48 129 262 354 179 173 186 206 305 9 50 146 158 169 209 208 189 145 140 150 149 154 149 148 145 137 136 121 108 117 137 151 163 163 158 164 170 168 171 169 171 173 174 168 157 159 166 179 187 197 199 201 201 186 167 168 172 172 172 174 169 163 157 144 157 155 164 169 177 174 170 169 168 166 169 167 177 177 176 180 176 171 177 173 174 163 156 149 154
65 125 103 111 237 56 314 72 286 193 239 258 322 189 281 237 238 45 70 244 191 204 206 179 123 130 180 185 177 165 158 147 161 172 165 164 169 170 179 177 167 173 179 173 172 170 170 172 173 174 182 175 167 161 172 182 193 200 201 202 207 187 177 174 176 173 174 176 172 162 162 168 160 166 186 180 187 179 170 167 169 170 172 177 177 173 177 179 175 172 174 164 162 159 158 152 154
192 159 151 117 202 197 244 220 205 253 268 300 5 359 245 266 298 234 232 199 224 224 261 329 102 250 198 181 173 171 180 177 181 178 178 181 181 184 185 183 180 180 178 173 169 171 173 173 174 178 185 178 175 165 173 184 196 200 202 200 207 195 186 178 178 174 178 178 176 176 176 173 178 187 179 190 185 184 180 178 177 178 176 172 176 176 175 176 174 172 163 154 157 154 144 146 148
203 185 158 173 161 174 208 175 205 218 216 257 301 82 238 92 249 311 248 247 237 239 236 222 213 221 228 163 174 181 185 197 185 179 183 183 187 183 186 188 186 181 175 174 171 171 169 176 175 180 186 188 183 176 175 185 192 195 199 197 201 187 180 180 178 172 174 176 179 181 187 179 181 185 186 185 174 184 185 176 176 176 178 176 175 173 174 172 169 159 156 152 147 145 138 133 135
220 218 254 266 224 100 203 183 186 291 4 320 232 212 231 184 269 243 27 25 314 283 261 247 245 251 236 227 206 205 200 193 191 187 190 195 190 186 183 185 185 178 176 175 174 171 173 181 183 187 187 190 193 178 183 183 194 194 196 199 203 182 174 171 168 170 177 178 179 182 187 188 188 179 177 172 181 179 183 178 174 174 170 169 170 169 168 168 161 155 148 148 144 138 131 129 135
211 131 220 198 340 131 324 359 47 94 40 257 165 288 262 304 270 247 249 240 235 238 240 256 252 248 250 249 245 228 214 199 191 192 196 199 188 187 181 179 178 176 177 180 178 177 177 178 185 191 193 192 195 187 180 184 192 195 198 194 196 182 179 180 180 177 175 174 176 183 188 193 183 179 174 175 172 181 181 177 175 164 161 158 156 159 162 163 160 154 153 149 144 137 130 139 140
102 191 228 85 44 98 145 213 41 171 216 261 125 236 281 41 289 207 211 230 234 226 236 228 232 236 240 243 250 245 238 207 190 195 203 196 188 181 177 176 178 180 181 176 179 177 181 180 182 187 190 193 199 183 179 183 194 199 198 194 193 187 181 182 179 177 174 172 171 171 169 166 181 183 176 175 172 175 174 169 168 161 156 155 158 158 159 159 154 153 153 152 146 139 131 131 138
116 178 315 136 249 267 255 91 252 247 240 278 250 234 262 226 250 301 313 200 227 225 221 224 230 229 234 247 257 255 226 163 174 193 190 186 180 182 179 179 182 180 179 178 175 176 180 184 185 187 192 193 192 185 177 185 193 201 198 195 191 189 184 181 182 172 168 178 179 175 172 171 159 163 162 164 167 169 165 165 160 159 155 157 155 157 157 154 150 144 148 142 143 137 136 138 145
44 10 357 146 104 182 160 194 192 129 241 217 277 287 262 204 244 199 249 210 209 209 217 223 221 218 228 240 244 249 188 186 187 190 191 189 183 180 179 179 182 181 180 177 177 179 186 185 182 188 191 190 190 183 175 185 193 197 190 184 187 187 186 183 176 172 174 180 181 177 173 166 166 163 165 160 163 166 166 164 162 157 159 155 158 157 158 153 148 152 149 143 148 138 137 141 145
236 205 252 214 158 263 113 298 177 173 201 211 275 288 261 244 200 226 223 225 207 195 205 221 213 221 223 227 236 224 194 189 196 189 185 184 186 177 177 178 183 182 180 178 181 188 190 184 186 185 189 192 194 190 179 185 182 195 184 184 183 182 186 179 172 179 180 182 180 177 175 169 144 165 157 161 163 166 168 167 160 160 163 165 162 161 162 151 151 149 148 146 145 145 142 147 143
181 186 204 195 171 180 185 258 151 176 190 227 217 261 277 260 170 217 215 230 200 192 187 196 205 214 227 238 231 192 188 210 190 181 167 176 172 166 166 168 175 178 189 191 188 183 195 199 190 184 187 194 192 193 185 180 182 185 191 187 185 181 178 178 178 179 183 177 175 177 170 149 165 166 166 167 168 163 165 166 164 165 167 168 168 165 162 155 152 149 149 151 151 150 148 152 152